Regional Weather Roundup
Issued by NWS Kansas City/Pleasant Hill, MO

Home | Current Version | Previous Version | Text Only | Print | Product List | Glossary On
Versions: 1 2 3 4 5 6 7 8 9 10 11 12 13 14 15 16 17 18 19 20 21 22 23 24 25 26
000
ASUS43 KEAX 180210
RWREAX

WEATHER ROUNDUP FOR EASTERN KANSAS AND NORTHWEST MISSOURI
NATIONAL WEATHER SERVICE KANSAS CITY/PLEASANT HILL MO
800 PM CST SAT FEB 17 2018

KSZ040-057-103>105-MOZ028-029-037-043-180300-
...KANSAS CITY METROPOLITAN AREA...

CITY           SKY/WX    TMP DP  RH WIND       PRES   REMARKS
K.C. INTL      CLEAR     43  19  38 CALM      30.17R
K.C. DOWNTOWN  CLEAR     42  22  44 CALM      30.17R
LEES SUMMIT    CLEAR     45  20  36 SE3       30.17R
OLATHE - IXD   CLEAR     35  21  56 CALM      30.17S
OLATHE - OJC   CLEAR     41  19  41 CALM      30.17R
LAWRENCE       CLEAR     33  21  61 CALM      30.17R

$$

MOZ001>008-011>017-020>025-030>033-038>040-044>046-053-054-180300-
...NORTHERN AND CENTRAL MISSOURI...

CITY           SKY/WX    TMP DP  RH WIND       PRES   REMARKS
ST. JOSEPH     CLEAR     29  19  66 N3        30.18R
MOSBY          CLEAR     34  21  60 CALM      30.18R
WARRENSBURG    CLEAR     41  19  42 CALM      30.18S
WHITEMAN AFB   CLEAR     39  19  45 CALM      30.14R
CLINTON        MOCLDY    32  23  69 NE3       30.19R
SEDALIA        CLEAR     45  24  43 CALM      30.20R
WARSAW         NOT AVBL
CHILLICOTHE      N/A     28  18  66 CALM      30.18R
KIRKSVILLE     CLEAR     34  23  64 CALM      30.17R

$$

MOZ041-047>049-056>058-063>065-088>090-097-180300-
...EASTERN AND SOUTHERN MISSOURI...

CITY           SKY/WX    TMP DP  RH WIND       PRES   REMARKS
ST. LOUIS INTL CLEAR     36  34  92 W6        30.18R WCI  31
SPIRIT OF STL  CLEAR     31  31 100 CALM      30.17R
COLUMBIA       CLEAR     37  22  54 W3        30.19R
JEFFERSON CITY CLEAR     36  30  79 CALM      30.20R
ROLLA          CLEAR     38  33  82 W6        30.18R WCI  33
OSAGE BEACH    CLEAR     36  31  82 S5        30.20R WCI  32
SPRINGFIELD    CLEAR     34  31  88 CALM      30.18R
BRANSON        CLEAR     39  37  93 CALM      30.22R
JOPLIN         CLEAR     43  37  79 S5        30.19R
WEST PLAINS    CLEAR     36  34  92 SW3       30.21R

$$

IAZ060-094-KSZ022-034>040-054-083-096-NEZ052-066-093-180300-
...KANSAS...SOUTHEAST NEBRASKA AND IOWA...

CITY           SKY/WX    TMP DP  RH WIND       PRES   REMARKS
TOPEKA         CLEAR     37  21  52 CALM      30.16R
MANHATTAN      CLEAR     36  16  44 N3        30.15R
EMPORIA        CLEAR     38  14  37 S8        30.17R WCI  32
CHANUTE        CLEAR     37  21  52 CALM      30.18R
WICHITA        PTCLDY    38  11  32 S3        30.16R
OMAHA          CLEAR     32  25  75 CALM      30.15S
LINCOLN        CLEAR     30  22  72 CALM      30.14F
FALLS CITY     CLEAR     38  20  48 N3        30.15S
LAMONI         CLEAR     34  23  64 NW8       30.15R WCI  27
DES MOINES     CLEAR     32  25  75 W3        30.14R

$$





USA.gov is the U.S. government's official web portal to all federal, state and local government web resources and services.